Regional Weather Roundup
Issued by NWS

Home | Current Version | Previous Version | Text Only | Print | Product List | Glossary On
Versions: 1 2 3 4 5 6 7 8 9 10 11 12 13 14 15 16 17 18 19 20 21 22 23 24 25 26 27 28 29 30 31 32 33 34 35 36 37 38 39 40 41 42 43 44 45 46 47 48 49 50
000
ASUS42 KTBW 171410
RWRFL
FLORIDA REGIONAL WEATHER ROUNDUP
NATIONAL WEATHER SERVICE TAMPA BAY RUSKIN FL
1000 AM EDT WED SEP 17 2014

NOTE: "FAIR" INDICATES FEW OR NO CLOUDS BELOW 12,000 FEET WITH NO
SIGNIFICANT WEATHER AND/OR OBSTRUCTIONS TO VISIBILITY.


FLZ001>010-012>015-112-114-115-171500-
PANHANDLE FLORIDA

CITY           SKY/WX    TMP DP  RH WIND       PRES   REMARKS
PENSACOLA      MOSUNNY   75  72  90 N7        29.97R
PENSACOLA NAS  PTSUNNY   78  73  84 VRB5      29.96R
MILTON NAS     MOSUNNY   77  71  82 N3        29.97S
CRESTVIEW      MOSUNNY   77  72  84 N3        29.99R
DUKE FIELD     MOSUNNY   74  74 100 N6        29.97S
VALPARAISO     MOSUNNY   78  72  83 N8        29.97R
MARY ESTHER    MOSUNNY   78  70  77 N6        29.96R
PANAMA CITY    FAIR      78  72  81 CALM      29.96S
TYNDALL AFB    PTSUNNY   75  75  99 E3        29.97R
APALACHICOLA   CLOUDY    80  71  74 NE7       29.96R

STATION/POSITION SKY/WX   TEMP    WIND        PRES    WAVE   SWELL
                          AIR SEA DIR/SP/G            HT/PER HT/PER
                          (F)     (DEG/KT/KT) (MB)    (FT/S) (FT/S)
30.1N   87.6W              79 85  360/  8/ 10 1014.5F   1/ 6   2/ 6
29.2N   88.2W              79 85  100/ 10/ 12 1014.9F   2/ 4   2/ 6
28.8N   86.0W              82 85  320/ 10/ 12 1013.9R   2/ 5   2/ 5
PANAMA CITY BEAC           75 85   30/  3/  5 1014.5F
CAPE SAN BLAS    NOT AVBL
TOWER C                    79      30/  9/ 10 1014.1S
28.5N   84.5W              82 85   20/ 14/ 16 1013.7R   3/ 5

$$
FLZ011-016>038-118-127-128-134-139-239-171500-
NORTH FLORIDA

CITY           SKY/WX    TMP DP  RH WIND       PRES   REMARKS
MARIANNA       PTSUNNY   74  74 100 VRB5      29.96R
TALLAHASSEE    PTSUNNY   79  71  76 VRB3      29.96R
PERRY          MOSUNNY   73  73 100 N5        29.97R
CROSS CITY       N/A     80  72  76 N5        29.96R
LAKE CITY      FAIR      73  72  94 CALM      29.96R
GAINESVILLE    MOSUNNY   79  73  82 VRB3      29.96R
MAYPORT NAS    PTSUNNY   79  72  79 N7        29.93S
JACKSONVILLE   PTSUNNY   79  73  82 N6        29.93S
JAX NAS        PTSUNNY   76  71  85 N5        29.95R
JAX CRAIG      SUNNY     77  71  82 NW6       29.94R
JAX CECIL      MOSUNNY   75  73  94 NW5       29.95S
ST AUGUSTINE   MOSUNNY   79  73  82 VRB7      29.94S

STATION/POSITION SKY/WX   TEMP    WIND        PRES    WAVE   SWELL
                          AIR SEA DIR/SP/G            HT/PER HT/PER
                          (F)     (DEG/KT/KT) (MB)    (FT/S) (FT/S)
SHELL POINT                74     350/  3/  4   N/A
KEATON BEACH               80      20/  4/  6 1014.5R
CEDAR KEY                  75      20/  3/  4 1014.7R
FERNANDINA                 76 83  360/  5/  6 1013.1R
30.7N   81.3W                 83                N/A     2/12   2/12
MAYPORT                    76 84  320/  6/  9   N/A
31.4N   80.9W              80 84  360/  8/ 10 1013.2S   2/13   2/13
ST AUGUSTINE               76     320/  6/  7 1014.4R

$$
FLZ040-043>046-052-053-057-058-063-144-171500-
INTERIOR CENTRAL FLORIDA

CITY           SKY/WX    TMP DP  RH WIND       PRES   REMARKS
OCALA          MOSUNNY   75  72  88 CALM      29.97S
THE VILLAGES     N/A     79  73  83 CALM      29.87S HAZE
LEESBURG       PTSUNNY   79  73  82 SW5       29.97F
SANFORD        PTSUNNY   80  73  79 MISG      29.96R
ORLANDO EXEC   PTSUNNY   80  73  79 W8        29.96S
ORLANDO INTL   PTSUNNY   78  73  84 W12       29.96F
LAKELAND       LGT RAIN  72  72 100 CALM      29.99R
BARTOW         DRIZZLE   72 N/A N/A SW6       29.99S
OKEECHOBEE     CLOUDY    79  73  83 MISG      29.98R

$$
FLZ041-047-054-059-064-141-147-171500-
EAST CENTRAL FLORIDA

CITY           SKY/WX    TMP DP  RH WIND       PRES   REMARKS
ORMOND BEACH   PTSUNNY   75  72  88 W8        29.96R
DAYTONA BEACH  PTSUNNY   77  74  90 W9        29.96R
DELAND         PTSUNNY   77  73  88 W8        29.97S
NEW SMYRNA BEA PTSUNNY   75  73  94 W10       29.96R
JFK SPACE CTR  PTSUNNY   79  73  81 W9        29.95R
TITUSVILLE     MOSUNNY   79  73  83 W12       29.96R
CAPE CANAVERAL PTSUNNY   81  72  75 W12       29.94S
PATRICK AFB    PTSUNNY   79  73  83 W13       29.95S
MELBOURNE      PTSUNNY   79  73  82 W12       29.95S
VERO BEACH     CLOUDY    79  71  76 W12       29.96S
FT PIERCE      PTSUNNY   81  71  71 W7        29.96S
STUART         MOSUNNY   81  72  74 W8        29.97S

STATION/POSITION SKY/WX   TEMP    WIND        PRES    WAVE   SWELL
                          AIR SEA DIR/SP/G            HT/PER HT/PER
                          (F)     (DEG/KT/KT) (MB)    (FT/S) (FT/S)
28.5N   80.2W              78 85  270/ 16/ 19 1013.8R
28.9N   78.5W              82 85  260/ 16/ 19 1013.1F   4/15   2/15
TRIDENT PIER               79 85  260/  9/ 13 1013.7S
28.4N   80.5W                 84                N/A     2/14   2/14
27.6N   80.2W                 83                N/A     2/17   2/17

$$
FLZ050-056-061-142-242-148-248-149-249-151-251-155-255-
160-260-171500-
WEST CENTRAL FLORIDA

CITY           SKY/WX    TMP DP  RH WIND       PRES   REMARKS
CRYSTAL RIVER  CLOUDY    77  73  88 CALM      29.96S
INVERNESS      CLOUDY    77  64  65 S5        29.98R
BROOKSVILLE    CLOUDY    74  72  93 S6        29.98S
ZEPHYRHILLS    LGT RAIN  66  64  94 SW5       30.00R
CLEARWATER     HVY RAIN  74  72  93 W12G17    29.99R VSB 1/4
TAMPA INTL     LGT RAIN  75  72  90 N6        29.98R FOG
TAMPA EXEC     HVY RAIN  73  72  94 N9        30.00R
PLANT CITY     RAIN      75 N/A N/A W3        30.01R
MACDILL AFB    RAIN      73  73 100 S3        29.98R FOG
ST PETERSBURG  RAIN      75  72  90 S5        29.96S FOG
SARASOTA       LGT RAIN  81  72  74 W9        29.96R
VENICE           N/A    N/A N/A N/A MISG        N/A

STATION/POSITION SKY/WX   TEMP    WIND        PRES    WAVE   SWELL
                          AIR SEA DIR/SP/G            HT/PER HT/PER
                          (F)     (DEG/KT/KT) (MB)    (FT/S) (FT/S)
CEDAR KEY                  75      20/  3/  4 1014.7R
28.5N   84.5W              82 85   20/ 14/ 16 1013.7R   3/ 5
27.3N   84.3W                 85                N/A     3/ 4
CLEARWATER BEACH NOT AVBL
MIDDLE TAMPA BAY           77     310/  4/ 14 1015.0R
VENICE                     81 86  260/  6/  7 1014.4F

$$
FLZ066-069-070-075>078-162-262-165-265-171500-
SOUTHWEST FLORIDA AND KEYS

CITY           SKY/WX    TMP DP  RH WIND       PRES   REMARKS
PUNTA GORDA    LGT RAIN  78  75  90 NE6       29.99S
FT MYERS       CLOUDY    81  73  76 W3        29.97R
SOUTHWEST INTL CLOUDY    81  69  67 NW5       29.98R
NAPLES         PTSUNNY   82  72  71 CALM      29.98S
MARCO ISLAND   SUNNY     81  73  78 W3        29.99R
MARATHON       PTSUNNY   86  77  74 CALM      29.99R HX  97
KEY WEST NAS   PTSUNNY   85  73  67 CALM      29.99R
KEY WEST INTL  SUNNY     86  73  65 N5        29.99R

STATION/POSITION SKY/WX   TEMP    WIND        PRES    WAVE   SWELL
                          AIR SEA DIR/SP/G            HT/PER HT/PER
                          (F)     (DEG/KT/KT) (MB)    (FT/S) (FT/S)
VENICE                     81 86  260/  6/  7 1014.4F
NAPLES                     84 89   CALM  /  1 1015.8R
DRY TORTUGAS               86      CALM  /  1 1015.5R
NW FL BAY                  81     120/  1/  2 1015.4R
SAND KEY                   83     340/  2/  3 1015.5R
SOMBRERO KEY               83     330/  2/  2 1016.3R
LONG KEY                   82 84  290/  2/  3 1016.0R
MOLASSES REEF              83 86  140/  2/  3 1015.4R

$$
FLZ067-068-071>074-168-172>174-171500-
SOUTHEAST FLORIDA

CITY           SKY/WX    TMP DP  RH WIND       PRES   REMARKS
W PALM BEACH   PTSUNNY   82  73  74 W3        29.97R
FT LAUDER-EXEC MOSUNNY   81  74  79 W5        29.98R
FT LAUDERDALE  PTSUNNY   84  71  65 W6        29.97R
POMPANO BEACH  MOSUNNY   83  70  64 W5        29.98R
PEMBROKE PINES SUNNY     83  72  69 W7        29.99R
OPA LOCKA      SUNNY     84  71  65 W6        29.99R
MIAMI          PTSUNNY   83  73  72 SW6       29.99R
WEST KENDALL   SUNNY     84  74  71 W7        29.99R
HOMESTEAD      MOSUNNY   82  74  76 S2        29.98S

STATION/POSITION SKY/WX   TEMP    WIND        PRES    WAVE   SWELL
                          AIR SEA DIR/SP/G            HT/PER HT/PER
                          (F)     (DEG/KT/KT) (MB)    (FT/S) (FT/S)
PORT EVERGLADES            83     260/  5/  8 1015.0
VIRGINIA KEY               81 85  240/  6/  7   N/A
LAKE WORTH                 81 85  220/  3/  5 1014.7S
FOWEY ROCKS                84 85  230/  5/  6 1015.5F
SETTLEMENT POINT           82     240/  9/ 10 1015.6R

$$




USA.gov is the U.S. government's official web portal to all federal, state and local government web resources and services.